This demonstration page uses our WeatherBlox Daily Observations layout. Learn more.

Left ArrowRight Arrow

38.88101, -77.10428

Hourly Observations for March 28, 2019

Temp ( °F °C ) Dew Point ( °F °C ) Humidity (%) Winds ( mph kmh ) Pressure ( in mb ) Visibility ( mi km ) Precip ( " mm )
12:52 am 00:52 Clear 41 5 28 -2.2 60 60 SSE 8 13 30.47 1032 10 16.0934 0 0
1:52 am 01:52 Clear 40 4.4 28 -2.2 63 63 SSE 7 11 30.46 1032 10 16.0934 0 0
2:52 am 02:52 Mostly Clear 40 4.4 29 -1.7 65 65 SSE 6 9 30.45 1031 10 16.0934 0 0
3:52 am 03:52 Clear 39 3.9 29 -1.7 67 67 SE 5 7 30.44 1031 10 16.0934 0 0
4:52 am 04:52 Clear 38 3.3 29 -1.7 70 70 SE 5 7 30.44 1031 10 16.0934 0 0
5:52 am 05:52 Clear 38 3.3 30 -1.1 73 73 SSE 6 9 30.44 1031 10 16.0934 0 0
6:52 am 06:52 Partly Cloudy 37 2.8 30 -1.1 76 76 SSW 5 7 30.45 1031 10 16.0934 0 0
7:52 am 07:52 Partly Cloudy 39 3.9 32 0 76 76 SSE 3 6 30.47 1032 10 16.0934 0 0
8:52 am 08:52 Mostly Sunny 42 5.6 33 0.6 71 71 S 9 15 30.46 1031 10 16.0934 0 0
9:52 am 09:52 Sunny 45 7.2 34 1.1 66 66 S 12 19 30.45 1031 10 16.0934 0 0
10:52 am 10:52 Mostly Cloudy 49 9.4 34 1.1 56 56 S 12 19 30.43 1031 10 16.0934 0 0
11:52 am 11:52 Mostly Cloudy 53 11.7 35 1.7 51 51 S 12 19 30.39 1029 10 16.0934 0 0
12:52 pm 12:52 Partly Cloudy 56 13.3 35 1.7 46 46 SSE 13 20 30.37 1028 10 16.0934 0 0
1:52 pm 13:52 Partly Cloudy 59 15 35 1.7 41 41 S 12 19 30.33 1027 10 16.0934 0 0
2:52 pm 14:52 Partly Cloudy 61 16.1 36 2.2 39 39 S 13 20 30.28 1026 10 16.0934 0 0
3:52 pm 15:52 Partly Cloudy 62 16.7 35 1.7 37 37 S 16 26 30.25 1024 10 16.0934 0 0
4:52 pm 16:52 Partly Cloudy 61 16.1 37 2.8 41 41 S 12 19 30.23 1024 10 16.0934 0 0
5:52 pm 17:52 Mostly Cloudy 60 15.6 37 2.8 42 42 S 10 17 30.22 1023 10 16.0934 0 0
6:52 pm 18:52 Mostly Cloudy 58 14.4 37 2.8 46 46 S 9 15 30.21 1023 10 16.0934 0 0
7:52 pm 19:52 Mostly Cloudy 58 14.4 35 1.7 42 42 SSE 9 15 30.22 1023 10 16.0934 0 0
8:52 pm 20:52 Cloudy 56 13.3 38 3.3 51 51 S 6 9 30.23 1024 10 16.0934 0 0
9:52 pm 21:52 Mostly Cloudy 54 12.2 37 2.8 53 53 S 3 6 30.24 1024 10 16.0934 0 0
10:52 pm 22:52 Mostly Cloudy 52 11.1 41 5 66 66 S 7 11 30.23 1024 10 16.0934 0 0
11:52 pm 23:52 Cloudy 53 11.7 40 4.4 61 61 S 8 13 30.21 1023 10 16.0934 0 0

Powered by AerisWeather